Showing default

TIANQI 29, 61195

Orbit data source: Space-Track

TIANQI 29, 61195 is a payload satellite owned by Guodian Gaokeji (CN) in LEO that was launched on Fri, 20 Sep 2024 UTC via a KUAIZHOU-1A launch vehicle from the Xichang Space Center, China (XSC). Payload-class satellites include a variety of spacecraft equipped with specific instruments for various scientific and technological missions. These include communications satellites like Starlink; space stations such as the ISS; scientific satellites like the Hubble; Earth observation satellites from companies like Planet Labs, Umbra, and HawkEye 360; GPS; miniature CubeSats for education and research; and military/defense satellites.

Loading next visibility...
Identifier
61195, 2024-170A
Orbit
LEO
Country
Flag of CNCN / PRC
Related business
Manufacturer
Shanghai ASES
Mission
Operational Commercial Communications
Bus & Motor
STARLIGHTB, Unknown motor
Mass
40 kg wet, ~40 kg dry
Launch date (UTC)
2024-09-20 (2 years ago)
Launch vehicle
KUAIZHOU-1A
Launch site
Xichang Space Center, China (XSC)
Object type
Payload
Rocket body
Debris
Shape & HBR
Box, 0.3 m
Radar Cross Section
0.195 m², Medium (>0.1 m² and < 1m²)

Expand to show TLE details & history
Last TLE update: 12 hours ago

TLE from 12 hours ago
0 TIANQI 29
1 61195U 24170A   26171.33285618 -.00000041  00000-0  59434-4 0  9994
2 61195  44.8559 122.6916 0004511 104.0917 256.0415 13.99145226 89304
Epoch: 2026-06-20T07:59Z
TLE epoch observation values (Epoch: 2026-06-20T07:59:18.773Z)
Latitude
-0.00006°
Longitude
94.31433°
Altitude
897.533 km
Speed
7.404 km/s
True Right ascension
08h 10m 45s
True Declination
0° 00' 00"
Sunlit
Object was in daylight at epoch
Visualization orbit readout
Latitude
Unknown
Longitude
Unknown
Altitude
Unknown
Speed
Unknown
Apparent Right ascension
Unknown
Apparent Declination
Unknown
Sunlit
N/A
Visualization observer readout
Local Sidereal Time
07:24:21
Azimuth
Unknown
Elevation
Unknown
Doppler factor
Unknown
Orbital elements
Apogee altitude
901.58 km
Perigee altitude
895.015 km
Semi-major axis
7,276.435 km
Eccentricity
0.00045
Inclination
44.8559°
RAAN
122.6916°
Arg. of periapsis
104.0917°
True anomaly
255.99134°
Mean anomaly
256.0415°
Eccentric anomaly
256.01642°
Mean motion
3.49676 °/min
Orbital period
102.95 mins
BSTAR
0.000059434
Loading maneuver chart data...
Computing Atmospheric mass density...
Loading historical data...
Loading historical data...
Loading historical data...
Loading historical data...
Loading historical data...
Loading historical data...
Loading historical data...
Other satellites on launch #170 in the year 2024 (2024-09-20 UTC)

Documentation

Showing up to 5 results
|